Temperature
18 18 17 17 17 17 16 16 16 16 16 16 16 16 16 16 16 16 16 16 16 16 16 16 16 16 16 16 15 15 15 15 15 15 15 15 15 15 15 15 15 15 15
18 18 17 17 17 16 16 16 16 16 16 16 16 16 16 16 16 16 16 15 15 15 15 15 15 15 15 15 15 15 15 15 15 15 15 15 15 15 15 15 15 15 15
18 18 17 17 17 16 16 16 16 16 15 15 16 16 16 15 15 15 15 15 15 15 15 15 15 15 15 15 15 15 15 15 15 15 14 14 14 14 14 14 14 14 14
18 18 17 17 17 16 16 16 16 15 15 15 15 15 15 15 15 15 15 15 15 15 15 15 15 15 15 15 15 15 15 15 14 14 14 14 14 14 14 14 14 14 14
18 17 17 17 16 16 16 16 15 15 15 15 15 15 15 15 15 15 15 15 15 15 15 15 15 14 14 14 14 14 14 14 14 14 14 14 14 13 13 13 13 13 13
17 17 17 16 16 16 16 16 15 15 15 15 15 15 15 15 15 15 15 15 14 14 14 14 14 14 14 14 14 14 14 14 14 14 14 14 14 14 13 13 13 13 13
17 17 16 16 16 16 16 15 15 15 15 15 15 15 15 15 15 14 14 14 14 14 14 14 14 14 14 14 14 14 14 14 14 14 14 14 14 14 13 13 13 13 13
16 16 16 16 16 15 15 15 15 15 15 15 15 15 14 14 14 14 14 14 14 14 14 14 14 14 14 14 14 14 13 13 13 13 13 13 13 13 13 13 13 13 13
16 16 16 16 15 15 15 15 15 15 15 15 15 14 14 14 14 14 14 14 14 14 14 14 14 14 14 13 13 13 13 13 13 13 13 13 13 13 13 13 13 12 12
16 16 15 15 15 15 15 15 15 14 15 14 14 14 14 14 14 14 14 14 14 14 14 14 14 14 14 13 13 13 13 13 13 13 13 12 12 12 12 12 12 12 12
16 15 15 15 15 15 15 14 14 14 14 14 14 14 14 14 14 14 13 13 13 13 13 13 13 13 13 13 13 13 13 13 13 13 12 12 12 12 12 12 12 12 12
15 15 15 15 15 15 14 14 14 14 14 14 14 14 14 14 14 14 13 13 13 13 13 13 13 13 13 13 13 13 13 12 12 12 12 12 12 12 12 12 12 12 12
15 15 15 15 14 14 14 14 14 14 14 14 13 13 14 14 13 13 13 13 13 13 13 13 13 13 13 13 13 12 12 12 12 12 12 12 12 12 12 12 12 12 12
15 14 14 14 14 14 14 14 14 14 14 13 13 13 13 13 13 13 13 13 13 13 12 12 12 12 12 12 12 12 12 12 12 12 12 12 12 12 12 12 12 12 12
14 14 14 14 14 14 14 14 14 14 14 13 13 13 13 13 13 13 13 13 13 13 12 12 12 12 12 12 12 12 12 12 12 12 12 12 12 12 12 11 11 11 11
14 14 14 14 14 14 13 13 13 13 13 13 13 13 13 13 13 13 13 13 13 12 12 12 12 12 11 12 12 12 12 12 12 11 11 12 11 11 11 11 11 11 11
14 14 13 13 13 13 13 13 13 13 13 13 13 13 13 13 13 13 13 13 12 12 12 12 12 12 11 11 11 11 11 12 12 11 11 11 11 11 11 11 11 11 11
14 14 13 13 13 13 13 13 13 13 13 13 13 13 13 13 13 13 12 12 12 12 12 12 11 11 11 11 11 11 11 11 11 11 11 11 11 11 11 11 11 10 11
13 13 13 13 13 13 13 13 13 13 13 13 13 13 13 13 13 12 12 12 12 12 12 12 11 11 11 11 11 11 11 11 11 11 11 11 11 11 11 10 10 10 10
13 13 13 13 13 13 13 13 13 13 13 13 13 13 12 12 12 12 12 12 12 12 12 11 11 11 11 11 11 11 11 11 11 11 11 11 10 10 10 10 10 10 10
13 13 13 13 13 13 13 13 12 12 12 13 13 12 12 12 12 12 12 12 12 12 12 11 11 11 11 11 11 11 11 10 10 10 10 10 10 10 10 10 10 10 10
13 12 12 12 13 13 13 12 12 12 12 12 12 12 12 12 12 12 12 12 12 12 12 11 11 11 11 11 11 11 10 10 10 10 10 10 10 10 10 10 10 10 10
12 12 12 12 12 12 12 12 12 12 12 12 12 12 12 12 12 12 12 11 11 11 11 11 11 11 11 11 10 10 10 10 10 10 10 10 10 10 10 10 10 10 10
12 12 12 12 12 12 12 12 12 12 12 12 12 12 12 12 11 11 11 11 11 11 11 11 11 11 11 10 10 10 10 10 10 10 10 10 10 10 10 9 10 10 9
12 12 12 12 12 12 12 12 12 11 12 12 12 11 11 11 11 11 11 11 11 11 11 11 10 10 10 10 10 10 10 10 9 9 9 10 9 9 9 9 9 9 9
12 12 12 12 12 12 12 12 12 11 11 11 11 11 11 11 11 11 11 10 10 10 10 10 10 10 10 10 10 10 9 9 9 9 9 9 9 9 9 9 9 9 9
Wind_Speed
5 4 3 3 3 2 2 2 2 1 2 2 2 2 2 2 2 2 2 2 2 1 1 1 1 1 0 0 1 1 1 2 2 2 1 1 0 1 1 2 3 2 3
6 4 4 3 2 2 2 2 2 2 2 2 2 2 2 2 2 2 2 2 2 2 2 1 2 1 0 1 1 1 1 2 3 2 1 1 1 2 2 2 1 2 2
5 5 4 3 3 3 3 3 2 2 2 2 2 2 2 2 2 2 2 2 3 3 3 3 2 2 2 1 1 1 2 1 2 2 2 1 1 1 0 1 1 1 2
5 5 5 5 5 5 3 3 2 2 2 2 2 2 2 3 3 3 3 3 3 3 3 4 3 4 4 4 2 2 2 2 2 2 1 1 1 1 1 1 1 1 1
5 5 5 4 4 3 3 3 2 2 3 3 2 2 2 3 3 3 3 3 3 4 4 4 4 5 5 5 4 4 4 3 2 2 2 1 1 1 1 1 2 1 2
5 5 4 3 3 4 3 3 2 3 3 2 3 3 3 3 3 3 4 4 4 4 4 4 4 4 4 5 5 5 6 5 5 4 3 3 3 3 2 2 2 1 2
5 5 4 4 4 4 4 3 3 3 3 3 3 3 3 4 4 4 4 4 4 4 4 4 4 3 3 3 4 4 5 6 7 6 5 5 5 4 3 2 2 3 3
4 4 4 4 4 4 4 4 4 3 3 4 4 4 4 4 4 4 4 3 3 4 4 4 4 4 4 4 4 3 3 4 6 5 6 6 6 5 5 5 4 2 1
4 4 5 5 4 4 5 5 4 4 4 3 3 4 4 5 4 4 4 2 3 4 4 4 4 5 6 5 4 4 3 4 4 6 7 6 6 6 5 3 2 2 1
4 5 5 5 5 5 5 5 3 3 4 3 3 4 4 4 5 5 4 3 3 3 3 3 5 5 6 6 6 6 5 5 3 3 3 4 4 4 5 5 5 4 2
4 4 4 4 5 4 3 3 3 3 2 2 3 3 3 4 5 5 5 3 4 3 3 3 4 5 6 6 6 6 8 6 4 3 3 3 2 2 3 4 5 5 4
3 3 3 3 4 3 2 2 2 3 3 2 2 3 3 3 4 5 5 5 4 4 4 4 4 5 6 6 5 6 7 5 3 2 2 3 3 3 3 3 4 5 5
2 2 2 2 2 2 3 2 2 2 3 3 3 3 3 3 3 3 3 3 3 3 3 3 4 4 5 4 5 6 5 4 3 3 4 4 3 3 2 1 2 1 1
3 2 2 2 2 1 1 2 3 3 3 3 3 3 3 3 3 2 1 2 2 1 2 3 3 3 3 3 3 2 3 4 4 4 3 2 1 1 2 2 2 1 1
3 3 2 3 3 2 2 3 4 4 5 5 4 4 4 4 6 6 4 3 3 3 2 1 0 0 1 1 1 1 2 2 3 3 2 2 2 2 1 1 1 1 1
3 3 2 2 2 2 2 2 3 4 5 6 7 7 6 7 7 6 5 4 4 4 3 2 2 2 3 3 2 2 2 3 3 3 3 3 3 2 2 1 1 2 2
5 4 3 3 3 3 3 3 3 3 3 4 6 8 8 8 6 6 5 4 4 5 3 3 3 3 3 3 3 3 3 3 3 3 3 3 3 2 2 2 1 1 1
5 5 5 4 4 4 4 4 4 3 3 3 4 6 7 7 6 6 4 3 1 2 3 3 3 3 3 3 3 3 2 2 3 3 3 3 3 3 2 2 2 2 2
4 4 4 4 4 4 4 4 3 4 3 3 3 3 4 4 3 3 4 3 4 3 3 3 3 3 3 3 3 2 2 2 2 3 3 3 3 3 2 2 3 3 2
4 6 5 4 3 3 3 3 3 3 3 3 4 4 2 1 1 2 3 4 4 4 4 3 3 3 3 3 2 2 2 2 2 2 3 3 3 3 3 3 3 2 2
3 3 5 3 3 3 3 3 3 3 3 3 4 5 6 4 4 4 4 4 4 5 4 4 3 2 2 2 2 3 3 2 2 2 3 3 3 3 3 3 3 3 2
3 2 2 3 3 3 3 3 3 3 3 3 3 4 6 3 3 3 3 4 4 4 4 3 3 3 3 3 3 3 3 3 2 2 2 3 3 3 3 3 3 2 3
3 3 2 2 2 3 3 2 2 2 2 2 2 2 3 3 3 3 3 3 3 3 3 3 3 2 2 2 3 4 3 3 3 3 3 2 2 2 2 3 3 3 3
3 3 3 2 2 2 3 3 2 3 2 2 2 2 2 2 2 2 3 3 2 2 3 3 3 4 3 2 2 3 3 3 3 3 3 3 3 2 2 2 3 3 3
2 3 3 3 3 3 3 3 2 3 2 2 2 1 1 1 1 1 2 2 2 2 3 3 3 3 3 3 4 3 3 3 2 2 3 3 3 3 2 3 2 2 2
2 2 2 2 2 3 3 3 3 3 3 2 2 2 2 2 2 2 2 2 2 2 2 2 3 4 3 3 4 4 4 3 2 3 3 3 3 2 2 2 3 2 2
Wind_Direction
176 180 179 184 202 202 196 210 209 212 200 203 195 189 196 204 203 190 205 191 194 236 247 202 240 235 175 212 148 140 141 145 183 267 270 285 239 264 260 228 236 228 239
181 175 182 186 190 202 217 222 201 200 205 210 206 193 208 213 209 194 209 216 213 230 248 222 234 230 208 231 169 171 180 170 163 214 282 278 251 236 230 218 228 235 227
169 171 182 183 189 217 223 224 214 199 202 210 198 210 214 216 218 222 218 231 234 229 227 216 222 192 220 220 190 193 198 175 152 166 240 261 250 239 247 274 258 262 243
164 171 187 195 197 213 219 217 214 210 215 223 222 228 215 213 220 216 213 232 242 244 234 223 217 204 209 205 201 198 184 166 152 157 218 256 258 258 164 225 298 300 282
165 177 196 205 204 203 205 213 213 222 238 231 216 224 224 220 228 214 213 224 228 243 249 241 231 218 202 198 198 192 178 175 175 179 208 237 249 228 229 232 242 281 298
171 188 194 195 204 207 206 209 213 231 235 229 224 221 230 237 238 218 212 224 224 234 246 249 244 222 214 209 208 199 186 184 191 192 201 213 236 226 223 218 220 212 272
178 186 187 190 205 213 210 210 224 231 227 233 238 221 226 239 237 236 227 216 226 233 235 239 243 231 210 212 222 219 215 212 196 191 199 214 221 218 202 217 220 210 229
179 190 190 189 209 223 217 221 227 227 222 229 238 234 235 246 240 242 240 229 234 242 235 227 226 233 221 203 203 213 220 226 217 211 210 219 221 216 198 199 203 208 261
182 196 200 198 210 223 225 227 226 222 231 231 231 229 237 250 236 227 218 221 244 255 252 239 229 226 223 202 188 201 223 247 240 228 221 221 223 215 186 154 152 151 257
204 207 207 204 211 220 228 225 220 220 230 235 246 242 237 239 233 225 213 209 235 255 265 259 247 233 223 202 193 194 213 233 232 241 239 241 230 225 198 182 182 183 212
213 211 213 215 216 215 217 212 203 202 213 247 264 266 248 233 231 227 218 209 219 235 251 267 262 234 220 212 203 206 217 214 213 215 220 229 230 228 222 204 191 189 204
204 209 222 224 224 218 199 214 197 186 195 242 268 284 274 251 235 231 225 221 216 214 236 248 253 247 233 223 215 221 215 204 199 203 206 219 220 227 231 219 213 211 213
202 220 233 228 229 210 195 202 208 204 204 222 220 249 277 275 259 239 219 224 222 221 242 253 260 257 245 236 234 222 205 192 190 203 214 223 219 215 211 214 231 224 260
204 220 213 201 225 225 210 204 212 212 208 215 218 231 252 267 265 263 246 232 223 240 273 279 275 262 250 243 242 231 209 198 194 207 217 218 185 174 198 198 200 198 230
206 219 213 204 204 220 230 228 226 228 212 208 219 217 222 246 248 232 213 212 209 218 224 263 321 294 274 270 248 233 212 199 206 205 196 186 180 183 207 203 178 169 197
209 217 216 213 212 212 228 273 269 245 245 230 221 220 231 233 235 225 222 221 216 193 166 208 227 229 238 235 225 224 215 214 212 199 190 186 187 194 208 214 163 172 211
209 214 211 210 209 205 211 220 262 302 285 249 244 239 234 232 223 221 221 217 205 172 185 225 228 226 232 232 223 219 224 224 206 190 189 190 188 190 187 193 194 201 224
217 215 209 208 208 208 214 216 214 224 261 287 277 257 246 235 225 221 207 158 176 197 222 227 229 229 224 222 220 216 221 218 193 185 189 191 187 182 183 192 201 210 220
219 215 213 210 209 209 212 213 219 225 230 248 275 286 264 246 243 229 185 190 205 219 230 236 231 226 222 217 216 210 199 196 187 185 189 189 188 183 194 209 210 214 199
231 230 219 212 213 217 214 207 215 218 227 234 239 242 225 168 215 223 209 211 212 220 221 224 231 231 217 206 198 186 184 193 189 194 200 199 199 192 198 208 206 204 210
225 230 228 219 210 207 201 205 213 216 223 232 237 229 204 202 216 221 215 214 212 214 213 212 214 222 222 202 185 179 179 198 208 207 204 204 196 194 198 200 207 205 205
208 214 216 215 213 198 194 199 201 214 229 241 250 237 216 213 219 222 224 229 220 210 203 196 198 206 204 193 182 175 180 196 208 207 210 206 198 198 196 199 204 208 207
211 215 210 211 208 198 199 204 200 217 236 248 246 233 215 227 233 222 219 223 218 200 189 182 179 185 194 188 181 173 180 197 210 207 196 197 197 193 194 205 210 212 218
213 210 205 209 203 205 209 209 210 223 233 236 228 215 209 217 228 227 214 204 199 191 183 179 185 187 188 190 184 175 180 194 201 203 184 183 189 192 197 208 212 211 216
207 206 208 210 203 202 205 202 209 225 220 214 209 203 210 215 233 231 197 182 178 171 171 181 191 187 192 202 192 181 178 174 183 191 191 187 190 201 206 211 207 201 214
224 220 217 219 207 204 203 200 202 199 194 202 195 202 216 212 209 202 181 168 165 164 167 184 192 195 201 204 197 181 174 179 189 189 183 182 187 203 206 211 209 208 201
Height
1509 1509 1509 1509 1510 1510 1510 1509 1510 1510 1509 1509 1509 1509 1509 1509 1509 1509 1509 1509 1508 1508 1508 1508 1507 1507 1507 1508 1508 1508 1508 1508 1508 1508 1509 1509 1510 1510 1510 1510 1510 1510 1510
1507 1507 1507 1508 1508 1507 1507 1507 1507 1507 1507 1507 1506 1506 1506 1507 1507 1507 1506 1506 1506 1506 1505 1505 1505 1505 1505 1505 1505 1505 1506 1506 1506 1505 1506 1506 1507 1508 1508 1508 1507 1507 1507
1505 1505 1506 1506 1506 1505 1505 1504 1505 1504 1504 1503 1503 1503 1503 1504 1504 1504 1504 1504 1503 1503 1503 1502 1502 1502 1502 1502 1503 1503 1503 1503 1503 1503 1503 1504 1504 1505 1505 1505 1505 1505 1505
1502 1503 1503 1503 1503 1503 1503 1502 1502 1501 1501 1501 1500 1500 1500 1501 1501 1501 1501 1501 1500 1500 1500 1500 1499 1499 1499 1499 1500 1500 1500 1500 1500 1500 1501 1501 1501 1502 1502 1502 1502 1502 1503
1500 1500 1500 1501 1501 1501 1500 1500 1499 1499 1499 1499 1498 1498 1498 1498 1498 1498 1498 1498 1497 1497 1497 1496 1496 1496 1496 1496 1497 1497 1497 1497 1497 1498 1498 1498 1498 1499 1499 1500 1500 1500 1500
1497 1497 1498 1498 1498 1498 1498 1498 1497 1497 1496 1496 1496 1496 1495 1495 1495 1495 1495 1494 1494 1494 1493 1493 1493 1493 1493 1493 1494 1494 1494 1494 1494 1495 1495 1495 1496 1496 1497 1497 1497 1497 1497
1495 1495 1495 1495 1495 1496 1495 1495 1495 1495 1494 1494 1493 1493 1492 1492 1492 1492 1491 1491 1491 1490 1490 1490 1490 1490 1490 1490 1490 1491 1491 1492 1492 1493 1492 1492 1493 1493 1494 1494 1495 1494 1494
1492 1492 1492 1493 1493 1493 1493 1492 1492 1492 1492 1491 1491 1490 1489 1489 1489 1489 1489 1488 1488 1487 1487 1486 1486 1486 1486 1487 1487 1487 1488 1488 1489 1490 1490 1490 1491 1491 1492 1492 1492 1492 1492
1488 1489 1489 1490 1490 1490 1489 1489 1489 1489 1489 1488 1488 1487 1486 1486 1485 1485 1485 1485 1484 1484 1483 1483 1483 1483 1483 1484 1484 1484 1484 1485 1486 1487 1488 1488 1488 1489 1489 1489 1489 1489 1488
1485 1486 1486 1487 1487 1486 1486 1486 1486 1486 1485 1485 1484 1483 1483 1482 1482 1482 1482 1481 1480 1480 1480 1479 1479 1479 1480 1480 1480 1480 1481 1482 1483 1484 1484 1485 1485 1485 1486 1486 1486 1486 1486
1482 1482 1483 1483 1483 1483 1483 1483 1482 1482 1481 1481 1480 1480 1479 1478 1478 1478 1478 1477 1476 1476 1476 1475 1475 1476 1476 1477 1477 1477 1477 1479 1479 1480 1480 1481 1482 1482 1482 1483 1483 1484 1483
1479 1479 1479 1480 1480 1480 1480 1479 1479 1478 1478 1477 1477 1476 1476 1475 1475 1475 1474 1474 1473 1473 1472 1472 1472 1472 1473 1473 1473 1473 1474 1475 1476 1476 1477 1477 1478 1478 1479 1480 1480 1481 1480
1475 1475 1476 1476 1476 1477 1476 1476 1475 1475 1474 1474 1473 1473 1472 1472 1472 1472 1471 1471 1470 1470 1469 1469 1469 1469 1469 1469 1470 1470 1471 1471 1472 1472 1473 1473 1474 1476 1477 1477 1477 1477 1477
1472 1472 1472 1473 1473 1473 1473 1472 1471 1470 1470 1470 1469 1468 1468 1469 1469 1468 1468 1467 1467 1467 1466 1466 1466 1466 1466 1466 1466 1467 1467 1468 1469 1469 1470 1471 1472 1472 1473 1474 1474 1474 1474
1468 1469 1469 1469 1469 1469 1469 1469 1468 1467 1467 1467 1466 1466 1466 1465 1465 1466 1465 1464 1464 1463 1463 1463 1462 1463 1462 1462 1463 1463 1464 1465 1465 1466 1467 1467 1468 1469 1470 1471 1471 1471 1471
1465 1465 1465 1466 1466 1466 1466 1465 1465 1465 1464 1464 1463 1464 1463 1463 1463 1463 1462 1462 1461 1461 1460 1459 1459 1459 1459 1459 1459 1460 1461 1461 1462 1463 1464 1464 1465 1466 1467 1468 1468 1468 1468
1461 1461 1462 1462 1462 1463 1463 1462 1461 1461 1461 1461 1461 1461 1460 1460 1460 1460 1459 1459 1459 1458 1457 1457 1456 1456 1456 1456 1456 1457 1457 1458 1459 1460 1460 1461 1462 1463 1464 1465 1465 1465 1465
1458 1458 1458 1458 1459 1459 1459 1459 1459 1458 1457 1457 1458 1457 1457 1457 1457 1456 1457 1456 1455 1455 1455 1454 1454 1453 1453 1453 1453 1454 1454 1455 1455 1456 1458 1459 1459 1460 1461 1461 1462 1462 1463
1454 1454 1454 1454 1455 1455 1456 1456 1456 1455 1455 1454 1455 1454 1454 1454 1454 1454 1453 1453 1452 1452 1452 1451 1451 1451 1451 1451 1451 1451 1451 1452 1452 1454 1455 1456 1457 1457 1458 1459 1460 1460 1460
1450 1450 1451 1451 1451 1451 1452 1452 1452 1452 1452 1452 1451 1451 1451 1450 1450 1450 1449 1450 1449 1449 1449 1449 1449 1448 1448 1448 1448 1448 1449 1449 1450 1451 1452 1453 1454 1455 1455 1456 1457 1457 1458
1446 1446 1447 1447 1447 1447 1448 1448 1449 1449 1448 1448 1448 1448 1447 1447 1447 1447 1447 1446 1446 1446 1446 1446 1446 1446 1446 1446 1446 1446 1446 1447 1447 1448 1449 1450 1451 1452 1453 1454 1454 1455 1455
1443 1443 1444 1444 1444 1444 1444 1444 1445 1445 1445 1445 1444 1444 1444 1444 1444 1444 1444 1444 1443 1443 1443 1443 1443 1443 1444 1444 1444 1444 1444 1444 1445 1446 1446 1447 1448 1449 1449 1450 1451 1452 1452
1439 1440 1440 1440 1441 1441 1441 1441 1441 1442 1442 1441 1441 1441 1441 1441 1441 1441 1441 1441 1441 1441 1441 1441 1441 1441 1442 1442 1442 1442 1442 1442 1442 1443 1443 1444 1444 1445 1446 1447 1448 1449 1449
1436 1437 1437 1438 1438 1438 1438 1438 1438 1438 1438 1439 1439 1438 1438 1438 1438 1438 1438 1438 1438 1439 1439 1439 1439 1439 1439 1439 1439 1439 1439 1440 1440 1440 1441 1441 1441 1442 1443 1444 1444 1445 1446
1433 1434 1434 1435 1435 1435 1435 1435 1435 1436 1436 1436 1436 1436 1435 1436 1435 1435 1435 1436 1436 1436 1436 1436 1437 1437 1437 1437 1437 1437 1437 1437 1438 1438 1438 1439 1439 1439 1440 1440 1441 1441 1443
1431 1432 1432 1432 1432 1432 1433 1432 1432 1433 1433 1433 1433 1433 1434 1434 1433 1433 1434 1434 1434 1434 1434 1435 1435 1435 1435 1435 1435 1434 1434 1434 1434 1435 1435 1435 1435 1436 1437 1437 1438 1438 1439